7 * 24
多渠道服务支持
STARLINK-37038(NORAD编号68226)是美国SpaceX公司星链(Starlink)卫星互联网星座中的一颗第二代低轨通信卫星,隶属于SpaceX打造的全球卫星互联网组网项目。星链星座计划通过部署数万颗低轨卫星,为全球提供高速、低延迟的宽带互联网服务。该卫星运行在近地轨道,主要为用户提供互联网接入服务,补充星座网络覆盖容量,助力实现全球无死角互联网接入,同时星链星座目前也已大规模轨道重构以降低太空碎片风险,提升太空运行安全,STARLINK-37038也参与其中承担通信服务任务。
美国
(US)
| 数据来源 | 国际轨道数据 |
| 星历时间: | 2026-06-10T05:35:54+0800 14小时前 查看轨道信息 |
| 半长轴: | 6843.618km |
| 偏心率: | 0.0001928 |
| 轨道倾角: | 97.286° |
| 近地点辐角 | 96.574° |
| 升交点赤经 | 36.190° |
| 平近点角 | 263.572° |
| 近地点: | 464.161km |
| 远地点: | 466.801km |
| 周期: | 93.905分钟 |
| 每日圈数: | 15.334662 |